User: anonymous   Login
Location: Unspecified
(0.0000°N, 0.0000°E)
Time: 23:28:56
(UTC+00:00)
Language:

USA 247 - Orbit

View from above orbital plane
View from above orbital plane
View from above satellite
View from above satellite

Ground track
Ground track

The orbit data is extracted from the following two-line orbital elements,

1 39462U 13072A   18049.20823297 0.00000000  00000-0  00000-0 0    05
2 39462 122.9976 308.7424 0006288  65.4787 294.5213 13.41417316    08
Epoch (UTC): 18 February 2018 04:59:51
Eccentricity: 0.0006288
inclination: 122.9976°
perigee height: 1099 km
apogee height: 1109 km
right ascension of ascending node: 308.7424°
argument of perigee: 65.4787°
revolutions per day: 13.41417316
mean anomaly at epoch: 294.5213°
orbit number at epoch: 0

The dashed part of the orbit path shows where the satellite is in the earth's shadow,  

DLR